Location: Schommer Observatory
(40.5200°N, 74.4500°W)
Time: 06:00:10
(UTC-05:00)

Envisat - Visible Passes

Search period start: 20 January 2018 00:00
Search period end: 30 January 2018 00:00
Orbit: 764 x 766 km, 98.2° (Epoch: 20 January)

Date Brightness Start Highest point End Pass type
(mag) Time Alt. Az. Time Alt. Az. Time Alt. Az.
20 Jan 4.5 18:48:34 20° NNE 18:48:34 20° NNE 18:50:30 10° N visible
20 Jan 5.6 20:28:45 14° NW 20:28:45 14° NW 20:29:30 10° NW visible
21 Jan 4.7 18:11:10 13° NE 18:11:10 13° NE 18:12:32 10° NNE visible
21 Jan 4.8 19:51:21 23° NNW 19:51:21 23° NNW 19:53:15 10° NNW visible
22 Jan 4.2 19:13:56 28° N 19:13:56 28° N 19:16:27 10° N visible
22 Jan 6.0 20:54:07 10° NW 20:54:07 10° NW 20:54:09 10° NW visible
23 Jan 4.3 18:36:31 22° NE 18:36:31 22° NE 18:39:08 10° NNE visible
23 Jan 5.1 20:16:42 21° NW 20:16:42 21° NW 20:18:35 10° NNW visible
24 Jan 4.8 17:59:05 12° NE 17:59:05 12° NE 18:00:36 10° NE visible
24 Jan 4.1 19:39:16 35° NNW 19:39:16 35° NNW 19:42:09 10° NNW visible
25 Jan 3.7 19:01:50 34° NNE 19:01:50 34° NNE 19:05:13 10° N visible
25 Jan 5.5 20:42:01 16° WNW 20:42:01 16° WNW 20:43:30 10° NW visible
26 Jan 4.2 18:24:23 20° ENE 18:24:23 20° ENE 18:27:40 10° NNE visible
26 Jan 4.4 20:04:34 33° NW 20:04:34 33° NW 20:07:36 10° NNW visible
27 Jan 3.3 19:27:07 52° N 19:27:07 52° N 19:31:01 10° N visible
27 Jan 6.0 21:07:18 10° WNW 21:07:18 10° WNW 21:07:25 10° WNW visible
28 Jan 3.6 18:49:40 33° ENE 18:49:40 33° ENE 18:53:55 10° N visible
28 Jan 5.0 20:29:51 24° WNW 20:29:51 24° WNW 20:32:43 10° NW visible
29 Jan 4.4 18:12:12 16° ENE 18:13:01 16° ENE 18:16:06 10° NNE visible
29 Jan 3.6 19:52:23 53° NW 19:52:23 53° NW 19:56:33 10° NNW visible
